Weather History for KCLE - November, 2013

Change the Weather History Date:

Friday, November 8, 2013

  Actual Average Record
Temperature  
Mean Temperature 38 °F 47 °F  
Max Temperature 44 °F 54 °F 72 °F (1945)
Min Temperature 32 °F 39 °F 19 °F (1976)
Degree Days  
Heating Degree Days 27 18  
Month to date heating degree days 144 137  
Since 1 July heating degree days 555 597  
Cooling Degree Days 0 0  
Month to date cooling degree days 0 0  
Year to date cooling degree days 889 816  
Moisture  
Dew Point 29 °F    
Average Humidity 66    
Maximum Humidity 82    
Minimum Humidity 49    
Precipitation  
Precipitation 0.11 in 0.12 in 0.73 in (1966)
Month to date precipitation 1.09 0.94  
Year to date precipitation 35.96 33.36  
Snow  
Snow 0.10 in 0.10 in - ()
Month to date snowfall 0.1 0.6  
Since 1 July snowfall 0.1 0.8  
Since 1 September snowfall 0.1 0.8  
Snow Depth 0.00 in    
Sea Level Pressure  
Sea Level Pressure 30.23 in    
Wind  
Wind Speed 9 mph (WSW)    
Max Wind Speed 22 mph    
Max Gust Speed 27 mph    
Visibility 9 miles    
Events Rain , Snow    
T = Trace of Precipitation, MM = Missing Value Source: NWS Daily Summary

Daily Weather History Graph

Daily Weather History Graph

Search for Another Location

Airport or City:

Trip Planner

Search our weather history database for the weather conditions in past years. The results will help you decide how hot, cold, wet, or windy it might be!

Date:

Astronomy

Nov. 08, 2013 Rise Set
Actual Time 7:07 AM EST 5:14 PM EST
Civil Twilight 6:38 AM EST 5:43 PM EST
Nautical Twilight 6:05 AM EST 6:16 PM EST
Astronomical Twilight 5:32 AM EST 6:48 PM EST
Moon 12:02 PM EST (11/8) 10:33 PM EST (11/8)
Length of Visible Light 11h 04m
Length of Day
10h 06m
Waxing Crescent, 33% of the Moon is Illuminated
Nov 8
Waxing Crescent
Nov 10
First Quarter
Nov 17
Full
Nov 25
Last Quarter
Dec 2
New

Hourly Weather History & Observations

Time (EST) Temp. Windchill Dew Point Humidity Pressure Visibility Wind Dir Wind Speed Gust Speed Precip Events Conditions
12:00 AM 36.0 °F 25.0 °F 30.9 °F 82% 30.13 in 2.5 mi West 20.7 mph 42.6 mph 0.02 in Rain , Snow Light Rain
12:06 AM 36.0 °F 27.1 °F 30.9 °F 82% 30.12 in 3.0 mi WSW 13.8 mph 27.6 mph 0.04 in Rain , Snow Light Rain
12:14 AM 36.0 °F 29.0 °F 32.0 °F 86% 30.11 in 9.0 mi SW 9.2 mph - 0.05 in   Overcast
12:23 AM 36.0 °F 29.0 °F 32.0 °F 86% 30.11 in 10.0 mi SW 9.2 mph - 0.05 in   Mostly Cloudy
12:44 AM 37.0 °F 29.3 °F 33.1 °F 86% 30.13 in 8.0 mi West 11.5 mph - 0.05 in Rain , Snow Light Snow
12:49 AM 35.6 °F 26.2 °F 32.0 °F 87% 30.14 in 2.5 mi NW 15.0 mph - 0.06 in Rain , Snow Light Snow
12:51 AM 36.0 °F 26.7 °F 32.0 °F 86% 30.15 in 2.0 mi WNW 15.0 mph - 0.07 in Rain , Snow Light Snow
1:00 AM 35.1 °F 26.9 °F 30.9 °F 85% 30.13 in 3.0 mi West 11.5 mph - 0.04 in Rain , Snow Light Snow
1:22 AM 35.1 °F 28.6 °F 32.0 °F 89% 30.13 in 10.0 mi West 8.1 mph - 0.06 in   Overcast
1:27 AM 35.1 °F 29.3 °F 32.0 °F 89% 30.13 in 10.0 mi WSW 6.9 mph - 0.06 in Rain , Snow Light Rain
1:51 AM 36.0 °F 30.3 °F 32.0 °F 86% 30.14 in 10.0 mi SW 6.9 mph - 0.06 in   Mostly Cloudy
2:51 AM 37.0 °F 31.0 °F 32.0 °F 82% 30.16 in 10.0 mi West 8.1 mph - N/A   Mostly Cloudy
3:51 AM 37.0 °F 29.8 °F 28.0 °F 70% 30.17 in 10.0 mi West 10.4 mph - N/A   Scattered Clouds
4:51 AM 37.0 °F 31.0 °F 30.9 °F 79% 30.18 in 10.0 mi WSW 8.1 mph - N/A   Overcast
5:51 AM 39.0 °F 32.3 °F 27.0 °F 62% 30.20 in 10.0 mi WNW 10.4 mph - N/A   Mostly Cloudy
6:51 AM 35.1 °F 29.3 °F 30.0 °F 82% 30.22 in 10.0 mi WSW 6.9 mph - N/A   Mostly Cloudy
7:51 AM 37.0 °F 31.0 °F 30.0 °F 76% 30.25 in 10.0 mi WSW 8.1 mph - N/A   Overcast
8:51 AM 39.0 °F 32.3 °F 30.9 °F 73% 30.28 in 10.0 mi WSW 10.4 mph - N/A   Overcast
9:51 AM 39.9 °F 33.4 °F 32.0 °F 73% 30.30 in 10.0 mi WSW 10.4 mph - N/A   Overcast
10:51 AM 42.1 °F 35.7 °F 27.0 °F 55% 30.31 in 10.0 mi West 11.5 mph 23.0 mph N/A   Overcast
11:51 AM 41.0 °F 34.7 °F 26.1 °F 55% 30.32 in 10.0 mi WNW 10.4 mph - N/A   Overcast
12:51 PM 43.0 °F 36.8 °F 30.0 °F 60% 30.31 in 10.0 mi WSW 11.5 mph - N/A   Overcast
1:51 PM 42.1 °F 34.9 °F 26.1 °F 53% 30.31 in 10.0 mi West 13.8 mph - N/A   Overcast
2:51 PM 42.1 °F 35.7 °F 24.1 °F 49% 30.30 in 10.0 mi West 11.5 mph - N/A   Mostly Cloudy
3:51 PM 42.1 °F 36.6 °F 25.0 °F 51% 30.30 in 10.0 mi West 9.2 mph - N/A   Mostly Cloudy
4:51 PM 41.0 °F 39.0 °F 27.0 °F 57% 30.30 in 10.0 mi WSW 3.5 mph - N/A   Overcast
5:51 PM 39.9 °F 37.8 °F 26.1 °F 58% 30.30 in 10.0 mi SW 3.5 mph - N/A   Mostly Cloudy
6:51 PM 37.9 °F 34.4 °F 27.0 °F 65% 30.31 in 10.0 mi South 4.6 mph - N/A   Mostly Cloudy
7:51 PM 34.0 °F 28.8 °F 27.0 °F 75% 30.31 in 10.0 mi South 5.8 mph - N/A   Scattered Clouds
8:51 PM 33.1 °F 26.9 °F 26.1 °F 75% 30.31 in 10.0 mi South 6.9 mph - N/A   Partly Cloudy
9:51 PM 33.1 °F 26.1 °F 26.1 °F 75% 30.30 in 10.0 mi SSE 8.1 mph - N/A   Clear
10:51 PM 32.0 °F 24.8 °F 25.0 °F 75% 30.29 in 10.0 mi SSE 8.1 mph - N/A   Clear
11:51 PM 32.0 °F 25.6 °F 25.0 °F 75% 30.28 in 10.0 mi SSE 6.9 mph - N/A   Partly Cloudy